P/2019 A6 ( Lemmon-PanSTARRS )

Japanese version
Home page
Updated on May 20, 2019

---------------------------------------------------------------------

* Profile

Discovery Date December 14, 2018 and January 7, 2019
Magnitude 20.4 mag, 20.7 mag
Discoverer Mt. Lemmon Survey, Pan-STARRS 1 telescope (Haleakala)

* Pictures

* Orbital Elements

Epoch 2018 Aug. 30.0 TT = JDT 2458360.5
T 2018 Aug. 29.31808 TT                                 MPCW
q   1.9385086            (2000.0)            P               Q
n   0.07913434     Peri.  156.30845     +0.16744393     -0.82537412
a   5.3731143      Node   280.27156     +0.79409973     +0.43702875
e   0.6392207      Incl.   33.22762     +0.58426719     -0.35744011
P  12.45
From 53 observations 2018 Nov. 10-2019 Mar. 1, mean residual 0".4.

* Magnitudes Graph

        m1 = 15.5 + 5 log d + 10.0 log r

---------------------------------------------------------------------

The orbital elements are published on M.P.E.C. 2019-J142.
The magnitudes graphs are made with Comet for Windows.

---------------------------------------------------------------------

Copyright(C) Seiichi Yoshida (comet@aerith.net). All rights reserved.